This demonstration page uses our WeatherBlox Daily Observations layout. Learn more.

39.92423, -83.80882

Hourly Observations for May 29, 2017

Temp ( °F °C ) Dew Point ( °F °C ) Humidity (%) Winds ( mph kmh ) Pressure ( in mb ) Visibility ( mi km ) Precip ( " mm )
12:56 am 00:56 Cloudy 64 17.8 60 15.6 87 87 W 9 15 29.81 1010 10 16.0934 0 0.0254
1:56 am 01:56 Clear 62 16.7 60 15.6 93 93 WSW 8 13 29.83 1010 10 16.0934 0 0
2:56 am 02:56 Clear 61 16.1 59 15 93 93 WSW 6 9 29.84 1010 10 16.0934 0 0
3:56 am 03:56 Clear 60 15.6 59 15 96 96 SW 7 11 29.83 1010 9 14.48406 0 0
4:56 am 04:56 Mostly Clear with Mist and Fog 59 15 58 14.4 96 96 SW 7 11 29.84 1011 6 9.65604 0 0
5:56 am 05:56 Clear with Mist and Fog 59 15 58 14.4 96 96 SSW 6 9 29.86 1011 6 9.65604 0 0
6:35 am 06:35 Partly Cloudy with Mist and Fog 59 15 59 15 100 100 SW 9 15 29.88 1012 3 4.82802 0 0
6:53 am 06:53 Mostly Cloudy with Mist and Fog 61 16 59 15 94 94 SW 8 13 29.91 1013 3 4.82802 0 0
6:56 am 06:56 Mostly Cloudy with Mist and Fog 60 15.6 59 15 96 96 SW 8 13 29.9 1012 3 4.82802 0 0
7:15 am 07:15 Mostly Cloudy with Mist and Fog 61 16 61 16 100 100 SW 8 13 29.91 1013 4 6.43736 0 0
7:56 am 07:56 Sunny with Mist and Fog 62 16.7 60 15.6 93 93 SW 7 11 29.91 1013 6 9.65604 0 0
8:56 am 08:56 Sunny 66 18.9 61 16.1 84 84 WSW 8 13 29.91 1013 10 16.0934 0 0
9:56 am 09:56 Sunny 70 21.1 60 15.6 71 71 SW 8 13 29.9 1013 10 16.0934 0 0
10:56 am 10:56 Sunny 73 22.8 60 15.6 64 64 SW 9 15 29.91 1013 10 16.0934 0 0
11:56 am 11:56 Sunny 76 24.4 55 12.8 48 48 SW 13 20 29.91 1013 10 16.0934 0 0
12:56 pm 12:56 Mostly Sunny 77 25 54 12.2 45 45 SW 21 33 29.91 1013 10 16.0934 0 0
1:56 pm 13:56 Mostly Cloudy 79 26.1 55 12.8 44 44 WSW 15 24 29.91 1013 10 16.0934 0 0
2:56 pm 14:56 Mostly Cloudy 79 26.1 55 12.8 44 44 SW 17 28 29.91 1013 10 16.0934 0 0
3:56 pm 15:56 Mostly Cloudy 80 26.7 56 13.3 44 44 SW 17 28 29.91 1013 10 16.0934 0 0.0254
4:56 pm 16:56 Cloudy 78 25.6 53 11.7 42 42 WSW 15 24 29.91 1013 10 16.0934 0 0
5:56 pm 17:56 Partly Cloudy 77 25 55 12.8 47 47 SW 12 19 29.91 1013 10 16.0934 0 0
6:56 pm 18:56 Mostly Cloudy 77 25 54 12.2 45 45 SW 8 13 29.9 1012 10 16.0934 0 0
7:56 pm 19:56 Cloudy 74 23.3 56 13.3 54 54 SSW 5 7 29.91 1013 10 16.0934 0 0
8:56 pm 20:56 Clear 71 21.7 56 13.3 59 59 SSW 3 6 29.91 1013 10 16.0934 0 0
9:56 pm 21:56 Clear 70 21.1 55 12.8 59 59 SW 7 11 29.91 1013 10 16.0934 0 0
10:42 pm 22:42 Clear with Nearby Thunderstorms 70 21 55 13 60 60 S 5 7 29.91 1013 10 16.0934 0 0
10:56 pm 22:56 Mostly Cloudy 69 20.6 55 12.8 61 61 NW 14 22 29.93 1014 10 16.0934 0 0
11:56 pm 23:56 Clear 68 20 54 12.2 61 61 S 3 6 29.92 1013 10 16.0934 0 0

Powered by AerisWeather